ONEWEB-0681, 56717

Orbit data source: Space-Track

ONEWEB-0681, 56717 is a payload satellite owned by One Web (NAA) (UK) in LEO that was launched on Sat, 20 May 2023 UTC via an FALCON 9 launch vehicle from the Air Force Western Test Range (AFWTR). Payload-class satellites include a variety of spacecraft equipped with specific instruments for various scientific and technological missions. These include communications satellites like Starlink; space stations such as the ISS; scientific satellites like the Hubble; Earth observation satellites from companies like Planet Labs, Umbra, and HawkEye 360; GPS; miniature CubeSats for education and research; and military/defense satellites.

Loading next visibility...
Identifier
56717, 2023-068H
Orbit
LEO
Country
Flag of UKUK
Related business
Manufacturer
One Web
Mission
Operational Commercial Communications
Bus & Motor
ARROW, Unknown motor
Mass
148 kg wet, ~140 kg dry
Launch date (UTC)
2023-05-20 (3 years ago)
Launch vehicle
FALCON 9
Launch site
Air Force Western Test Range (AFWTR)
Object type
Payload
Rocket body
Debris
Shape & HBR
Trap Box + 2 Pan, 6.7 m
Radar Cross Section
3.464 m², Large (>1 m²)

Expand to show TLE details & history
Last TLE update: 2 days ago

TLE from 2 days ago
0 ONEWEB-0681
1 56717U 23068H   26171.48287505 -.00000033  00000-0 -11064-3 0  9994
2 56717  87.9255 243.3166 0001813  70.0939 290.0390 13.21827452151522
Epoch: 2026-06-20T11:35Z
TLE epoch observation values (Epoch: 2026-06-20T11:35:20.404Z)
Latitude
-0.00003°
Longitude
160.78473°
Altitude
1,180.183 km
Speed
7.264 km/s
True Right ascension
16h 13m 15s
True Declination
0° 00' 00"
Sunlit
Object was in full shadow at epoch
Visualization orbit readout
Latitude
Unknown
Longitude
Unknown
Altitude
Unknown
Speed
Unknown
Apparent Right ascension
Unknown
Apparent Declination
Unknown
Sunlit
N/A
Visualization observer readout
Local Sidereal Time
21:32:37
Azimuth
Unknown
Elevation
Unknown
Doppler factor
Unknown
Orbital elements
Apogee altitude
1,176.22 km
Perigee altitude
1,173.481 km
Semi-major axis
7,552.987 km
Eccentricity
0.00018
Inclination
87.9255°
RAAN
243.3166°
Arg. of periapsis
70.0939°
True anomaly
290.01948°
Mean anomaly
290.039°
Eccentric anomaly
290.02924°
Mean motion
3.30647 °/min
Orbital period
108.88 mins
BSTAR
-0.00011064
Loading maneuver chart data...
Computing Atmospheric mass density...
Loading historical data...
Loading historical data...
Loading historical data...
Loading historical data...
Loading historical data...
Loading historical data...
Loading historical data...

Documentation

Showing up to 5 results
|